| Date | Temp | Humidity | Rainfall | Dew Point | Wind Direction | Wind Speed | Wind Pressure | Condition | Visibility |
|---|---|---|---|---|---|---|---|---|---|
| 2025-04-18 13:00:22 | 32 | 69 | 0.00 | 26 | 310 | 17.1 | 1009 | Partly Cloudy (Day) | 20 |
| 2025-04-18 11:57:50 | 31 | 71 | 0.0 | 25 | 330 | 11.4 | 1010 | Partly Cloudy (Day) | 20 KM |
| 2025-04-18 11:02:28 | 31 | 62 | 0.0 | 24 | 200 | 7.6 | 1011 | Partly Cloudy (Day) | 20 KM |
| 2025-04-18 09:59:32 | 31 | 67 | 0.00 | 25 | 240 | 7.6 | 1011 | Partly Cloudy (Day) | 15KM |
| 2025-04-18 08:57:00 | 29 | 74 | 0.00 | 24 | 190 | 7.6 | 1011 | Partly Cloudy (Day) | 15KM |
| 2025-04-18 07:58:13 | 27 | 83 | 24 | 180 | 7.6 | 1010 | Partly Cloudy (Day) | 20 KM | |
| 2025-04-18 06:59:25 | 25 | 91 | 24 | 200 | 5.7 | 1010 | Partly Cloudy (Day) | 10 KM | |
| 2025-04-18 05:58:43 | 25 | 93 | 24 | 190 | 7.6 | 1009 | Partly Cloudy (Day) | 10 KM | |
| 2025-04-18 04:58:19 | 25 | 93 | 24 | 180 | 3.8 | 1008 | Partly Cloudy (Day) | 10 KM | |
| 2025-04-18 03:58:08 | 25 | 92 | 24 | 160 | 3.8 | 1008 | Partly Cloudy (Night) | 10 KM | |
| 2025-04-18 02:59:38 | 25 | 92 | 24 | 220 | 7.6 | 1008 | Partly Cloudy (Night) | 10 KM | |
| 2025-04-18 01:57:12 | 26 | 1009 | 24 | 200 | 3.8 | 1009 | Partly Cloudy (Night) | 10 KM | |
| 2025-04-18 00:58:30 | 26 | 91 | 24 | 200 | 5.7 | 1009 | Partly Cloudy (Night) | 10 KM | |
| 2025-04-17 23:59:14 | 26 | 90 | 25 | 200 | 7.6 | 1010 | Partly Cloudy (Night) | 10 KM | |
| 2025-04-17 22:59:20 | 27 | 87 | 25 | 160 | 7.6 | 1010 | Partly Cloudy (Night) | 10 KM | |
| 2025-04-17 21:59:25 | 27 | 88 | 25 | 170 | 5.7 | 1010 | Partly Cloudy (Night) | 10KM | |
| 2025-04-17 21:00:15 | 28 | 87 | 25 | 150 | 3.8 | 1009 | Night Thunderstorm | 10 KM | |
| 2025-04-17 20:07:32 | 29 | 80 | 25 | 120 | 3.8 | 1009 | Lightning | 10 KM | |
| 2025-04-17 19:03:26 | 30 | 76 | 25 | 360 | 5.7 | 1008 | Partly Cloudy (Night) | 10 KM | |
| 2025-04-17 18:02:00 | 30 | 74 | 25 | 350 | 7.6 | 1008 | Distant showers | 15 KM | |
| 2025-04-17 16:59:16 | 31 | 69 | 24 | 320 | 17.1 | 1007 | Partly Cloudy (Day) | 20 KM | |
| 2025-04-17 16:00:38 | 32 | 67 | 25 | 310 | 19 | 1007 | Partly Cloudy (Day) | 20 KM | |
| 2025-04-17 15:01:33 | 32 | 25 | 25 | 330 | 13.3 | 1008 | Thunderstorm | 15 KM | |
| 2025-04-17 14:00:54 | 32 | 69 | 26 | 330 | 13.3 | 1008 | Distant showers | 15 KM | |
| 2025-04-17 11:58:56 | 31 | 73 | 25 | 320 | 15.2 | 1011 | Distant showers | 15 KM |